PLANETUM 1 (52738 NORAD) Tracking and Keplerian Element Data

This shows tracking and keplerian element data for the satellite.

Feedback or suggestion? Click here.




ElementValue
Catalog52738
NamePLANETUM 1
Epoch Orbit712
Epoch Day192.87151881
Epoch Year2022
RAAN307.1272
Inclination97.5146
Eccentricity0.0009923
Argument of Perigee90.1463
Mean Anonmoly270.0904
Mean Motion15.12121327
Decay Rate5.474E-05
L11 52738U 22057G 22192.87151881 .00005474 00000+0 32113-3 0 9998
L22 52738 97.5146 307.1272 0009923 90.1463 270.0904 15.12121327 7124

Live tracking and technical data element details for PLANETUM 1 (NORAD 52738). PLANETUM 1 can be tracked NOW for your location showing map with azimuth and elevation plus other details from your city location.

Track the satellite on the map from your city or location and see movement details for azimuth, elevation, latitude, longitude, range, height, and movement on the map or in text.







IsCatalogInMostPopularTable: catalog: 52738, numindb: 3
Update: records affected: 1



GetName: 52738 PLANETUM 1

Hit Count: updated at: Sun, 14 Aug 2022 00:59:15 GMT